SCP
0 0 0 0 0 0 0 0 0 0 0 0 0 0 0 0 0 0 0 0 0 0 0 0 0 0 0 0 0 0 0 0 0 0 0 0 0 0 0 0 0 0 0 0
0 0 0 0 0 0 0 0 0 0 0 0 0 0 0 0 0 0 0 0 0 0 0 0 0 0 0 0 0 0 0 0 0 0 0 0 0 0 0 0 0 0 0 0
0 0 0 0 0 0 0 0 0 0 0 0 0 0 0 0 0 0 0 0 0 0 0 0 0 0 0 0 0 0 0 0 0 0 0 0 0 0 0 0 0 0 0 0
0 0 0 0 0 0 0 0 0 0 0 0 0 0 0 0 0 0 0 0 0 0 0 0 0 0 0 0 0 0 0 0 0 0 0 0 0 0 0 0 0 0 0 0
0 0 0 0 0 0 0 0 0 0 0 0 0 0 0 0 0 0 0 0 0 0 0 0 0 0 0 0 0 0 0 0 0 0 0 0 0 0 0 0 0 0 0 0
0 0 0 0 0 0 0 0 0 0 0 0 0 0 0 0 0 0 0 0 0 0 0 0 0 0 0 0 0 0 0 0 0 0 0 0 0 0 0 0 0 0 0 0
0 0 0 0 0 0 0 0 0 0 0 0 0 0 0 0 0 0 0 0 0 0 0 0 0 0 0 0 0 0 0 0 0 0 0 0 0 0 0 0 0 0 0 0
0 0 0 0 0 0 0 0 0 0 0 0 0 0 0 0 0 0 0 0 0 0 0 0 0 0 0 0 0 0 0 0 0 0 0 0 0 0 0 0 0 0 0 0
0 0 0 0 0 0 0 0 0 0 0 0 0 0 0 0 0 0 0 0 0 0 0 0 0 0 0 0 0 0 0 0 0 0 0 0 0 0 0 0 0 0 0 0
0 0 0 0 0 0 0 0 0 0 0 0 0 0 0 0 0 0 0 0 0 0 0 0 0 0 0 0 0 0 0 0 0 0 0 0 0 0 0 0 0 0 0 0
0 0 0 0 0 0 0 0 0 0 0 0 0 0 0 0 0 0 0 0 0 0 0 0 0 0 0 0 0 0 0 0 0 0 0 0 0 0 0 0 0 0 0 0
0 0 0 0 0 0 0 0 0 0 0 0 0 0 0 0 0 0 0 0 0 0 0 0 0 0 0 0 0 0 0 0 0 0 0 0 0 0 0 0 0 0 0 0
0 0 0 0 0 0 0 0 0 0 0 0 0 0 0 0 0 0 0 0 0 0 0 0 0 0 0 0 0 0 0 0 0 0 0 0 0 0 0 0 0 0 0 0
0 0 0 0 0 0 0 0 0 0 0 0 0 0 0 0 0 0 0 0 0 0 0 0 0 0 0 0 0 0 0 0 0 0 0 0 0 0 0 0 0 0 0 0
0 0 0 0 0 0 0 0 0 0 0 0 0 0 0 0 0 0 0 0 0 0 0 0 0 0 0 0 0 0 0 0 0 0 0 0 0 0 0 0 0 0 0 0
0 0 0 0 0 0 0 0 0 0 0 0 0 0 0 0 0 0 0 0 0 0 0 0 0 0 0 0 0 0 0 0 0 0 0 0 0 0 0 0 0 0 0 0
0 0 0 0 0 0 0 0 0 0 0 0 0 0 0 0 0 0 0 0 0 0 0 0 0 0 0 0 0 0 0 0 0 0 0 0 0 0 0 0 0 0 0 0
0 0 0 0 0 0 0 0 0 0 0 0 0 0 0 0 0 0 0 0 0 0 0 0 0 0 0 0 0 0 0 0 0 0 0 0 0 0 0 0 0 0 0 0
0 0 0 0 0 0 0 0 0 0 0 0 0 0 0 0 0 0 0 0 0 0 0 0 0 0 0 0 0 0 0 0 0 0 0 0 0 0 0 0 0 0 0 0
0 0 0 0 0 0 0 0 0 0 0 0 0 0 0 0 0 0 0 0 0 0 0 0 0 0 0 0 0 0 0 0 0 0 0 0 0 0 0 0 0 0 0 0
0 0 0 0 0 0 0 0 0 0 0 0 0 0 0 0 0 0 0 0 0 0 0 0 0 0 0 0 0 0 0 0 0 0 0 0 0 0 0 0 0 0 0 0
0 0 0 0 0 0 0 0 0 0 0 0 0 0 0 0 0 0 0 0 0 0 0 0 0 0 0 0 0 0 0 0 0 0 0 0 0 0 0 0 0 0 0 0
0 0 0 0 0 0 0 0 0 0 0 0 0 0 0 0 0 0 0 0 0 0 0 0 0 0 0 0 0 0 0 0 0 0 0 0 0 0 0 0 0 0 0 0
0 0 0 0 0 0 0 0 0 0 0 0 0 0 0 0 0 0 0 0 0 0 0 0 0 0 0 0 0 0 0 0 0 0 0 0 0 0 0 0 0 0 0 0
0 0 0 0 0 0 0 0 0 0 0 0 0 0 0 0 0 0 0 0 0 0 0 0 0 0 0 0 0 0 0 0 0 0 0 0 0 0 0 0 0 0 0 0
0 0 0 0 0 0 0 0 0 0 0 0 0 0 0 0 0 0 0 0 0 0 0 0 0 0 0 0 0 0 0 0 0 0 0 0 0 0 0 0 0 0 0 0
0 0 0 0 0 0 0 0 0 0 0 0 0 0 0 0 0 0 0 0 0 0 0 0 0 0 0 0 0 0 0 0 0 0 0 0 0 0 0 0 0 0 0 0
Wind_Speed
6 4 5 7 7 9 11 10 9 9 9 10 7 7 6 5 4 5 7 8 10 11 9 9 8 8 8 7 6 6 5 4 4 4 4 4 4 5 5 6 6 7 7 8
4 5 5 5 6 9 10 9 10 8 11 8 5 3 3 4 5 6 7 8 9 9 10 10 10 9 7 7 6 5 5 4 4 3 4 4 5 6 6 7 7 7 8 8
4 2 2 6 9 10 7 8 9 13 14 5 4 6 6 6 6 6 7 7 9 10 10 10 9 9 8 7 5 5 4 3 3 4 4 5 6 6 7 7 7 8 8 8
3 3 7 9 5 7 8 9 9 8 6 5 7 3 1 3 5 5 5 6 7 7 7 7 7 6 6 6 5 4 3 3 4 4 5 6 6 7 7 7 7 7 8 9
4 4 6 8 5 5 7 8 6 8 6 2 3 3 3 2 3 5 5 5 6 7 7 7 7 7 7 5 4 3 3 4 4 5 5 6 6 7 7 6 7 8 8 9
5 5 8 9 4 3 4 6 5 6 6 6 6 2 4 2 2 3 5 5 6 6 6 7 6 6 6 4 3 3 4 5 5 5 5 6 7 7 6 6 8 8 8 8
6 6 9 9 3 5 5 9 3 5 7 8 7 5 3 4 4 4 5 6 7 7 6 5 5 6 5 3 4 4 4 4 5 5 6 6 6 6 6 7 7 7 9 8
6 5 11 6 7 9 8 3 4 5 5 7 5 3 5 5 6 6 6 6 6 6 5 4 4 5 4 3 4 3 4 5 5 6 6 5 6 7 7 7 8 8 9 9
11 10 6 6 8 5 5 5 4 5 4 6 6 5 5 5 6 5 6 5 4 6 5 3 3 3 3 4 3 3 4 5 6 6 6 6 6 7 7 6 6 7 7 9
5 7 5 4 3 4 5 5 5 5 6 7 6 6 6 6 5 5 4 4 4 5 4 2 2 2 3 4 3 3 5 6 6 6 6 6 5 5 6 6 7 8 8 9
5 4 1 3 6 6 4 4 4 4 5 6 7 6 7 6 6 5 4 3 4 4 3 3 2 3 3 3 3 4 5 6 6 6 6 6 6 6 7 7 8 11 8 8
8 8 8 7 6 7 7 6 6 6 4 3 5 6 6 5 5 5 4 3 3 3 2 2 3 4 4 4 3 4 5 6 5 5 5 6 7 8 12 14 19 21 20 19
6 4 5 3 4 6 7 6 5 6 6 5 4 5 6 5 4 4 4 3 3 3 3 3 3 5 5 4 4 5 6 6 5 5 6 6 7 8 10 12 16 19 20 22
5 6 4 4 5 5 6 6 6 6 5 5 5 6 6 5 4 4 3 3 2 2 2 3 4 6 6 5 5 6 7 8 8 6 6 6 7 8 8 10 11 9 11 19
4 4 5 5 6 6 6 7 7 6 5 5 5 6 6 6 4 3 2 1 1 2 3 4 5 7 6 5 6 7 6 5 6 6 6 7 7 8 8 10 10 11 9 10
5 5 7 7 8 7 6 7 7 6 5 5 5 5 5 4 3 1 0 1 2 4 5 5 7 8 7 6 7 6 6 12 11 7 6 6 7 8 9 9 10 10 10 9
9 7 7 7 7 6 6 6 7 7 6 6 5 5 4 3 2 0 2 2 3 5 6 6 8 8 7 7 7 6 6 8 14 10 6 7 8 9 9 9 10 10 9 11
6 7 8 9 9 8 7 7 7 7 5 5 5 4 3 2 2 3 4 4 4 6 7 7 7 7 7 7 6 5 6 6 6 7 7 7 9 8 8 9 10 12 10 11
6 7 8 8 9 9 7 7 6 6 5 5 4 3 2 2 2 3 3 4 5 7 7 7 12 9 7 9 10 6 6 8 8 8 8 12 12 8 8 9 10 10 10 9
8 9 10 9 8 8 8 6 6 5 4 3 3 1 1 3 3 4 4 5 6 7 7 9 9 7 7 8 12 6 7 8 8 9 8 8 9 9 9 10 10 10 9 9
10 10 11 10 8 7 7 6 5 4 2 2 2 2 3 4 4 4 4 6 7 7 7 12 8 6 7 9 13 6 6 7 8 8 8 9 9 10 10 10 10 10 10 9
8 9 9 9 8 6 4 4 4 3 1 0 1 2 3 5 5 5 6 7 7 11 8 6 6 10 14 16 7 6 7 7 8 7 8 8 9 10 10 10 9 10 9 8
8 8 8 7 6 5 4 3 2 1 0 1 3 3 4 5 4 5 7 5 5 12 10 6 12 20 23 12 6 6 7 8 8 8 8 8 9 9 9 10 9 9 9 9
8 7 6 5 5 4 3 1 1 1 2 3 4 5 5 5 5 5 6 11 15 17 9 12 20 22 21 7 6 7 7 8 8 9 9 9 8 8 9 9 9 9 9 10
7 6 5 5 3 2 0 1 2 2 3 3 5 5 5 4 5 6 6 7 14 16 9 12 20 21 12 7 7 8 8 8 10 10 8 8 9 9 9 9 9 9 9 9
4 4 3 2 2 1 0 1 1 2 3 4 5 4 4 4 6 6 6 8 10 15 11 8 9 12 8 8 9 9 8 10 11 9 9 10 10 10 9 9 11 10 9 9
4 3 2 2 1 0 0 1 2 3 3 5 6 5 5 5 6 7 8 8 8 9 8 8 8 8 8 9 9 9 9 9 9 9 9 9 9 9 9 10 10 9 9 9
Wind_Direction
218 220 176 200 203 188 197 204 207 230 231 248 245 237 237 232 213 194 195 191 188 185 178 171 167 167 166 168 169 164 166 182 209 226 237 249 260 266 270 272 271 273 277 279
214 218 208 226 224 206 214 219 228 249 260 247 245 216 216 213 199 200 203 197 188 178 172 172 171 168 164 167 170 163 173 200 222 237 250 258 264 268 272 274 274 274 274 275
213 214 162 247 223 206 209 211 199 227 245 232 216 218 216 211 203 207 205 192 183 179 176 173 168 163 167 167 161 164 183 211 230 243 256 263 268 272 273 273 273 275 274 274
160 142 221 240 233 204 213 236 217 228 244 217 211 206 203 195 195 207 200 188 179 167 159 154 152 150 149 149 156 169 195 227 243 249 260 269 273 273 272 271 271 273 275 275
147 197 261 286 252 193 200 254 227 222 229 182 122 81 327 274 201 197 187 170 160 153 146 141 145 146 141 147 156 178 217 240 250 252 261 271 274 274 274 275 276 274 274 276
145 176 224 240 229 181 143 263 243 190 182 161 133 146 253 219 149 134 129 130 130 127 122 131 140 138 138 153 171 213 235 247 254 255 259 266 270 274 274 274 276 280 281 277
171 207 249 247 207 120 176 240 202 167 168 166 181 197 194 139 127 128 123 122 122 121 126 139 141 135 144 168 211 233 246 258 264 264 264 267 271 272 278 281 284 284 285 281
164 195 248 221 148 184 211 178 151 156 166 173 183 145 139 143 139 133 124 122 123 122 125 135 140 140 161 211 235 248 259 266 270 272 274 277 276 280 281 283 288 289 290 290
187 208 230 184 193 199 159 159 168 164 167 158 158 169 164 157 150 143 136 132 126 130 131 140 154 156 190 237 251 261 269 272 275 278 275 274 276 283 288 285 285 290 290 292
216 250 239 214 198 174 172 170 170 164 159 160 170 172 166 158 155 148 141 138 131 133 144 172 195 204 224 250 260 263 270 275 277 279 281 280 276 274 279 282 283 287 289 291
218 247 198 221 203 185 165 146 141 143 160 170 163 167 168 164 161 156 145 142 142 153 173 205 228 249 257 263 269 272 275 276 279 275 277 283 278 270 278 266 272 288 287 285
209 205 184 211 201 175 166 173 168 155 148 150 161 163 155 155 153 150 148 144 149 166 195 229 250 267 275 275 269 270 278 279 276 277 279 281 287 292 286 286 294 296 296 296
194 170 170 171 158 164 168 171 163 157 153 145 140 140 140 137 140 138 140 148 172 199 222 244 262 274 278 279 272 266 269 275 275 274 279 283 285 290 297 299 294 295 297 299
155 127 136 170 169 152 137 128 117 107 110 120 121 119 120 117 122 133 153 177 195 223 249 260 270 275 277 276 272 270 269 276 280 271 273 277 279 280 284 293 300 295 293 297
174 161 157 144 125 119 118 117 113 113 109 100 105 116 122 127 138 154 168 179 235 270 273 275 276 278 283 280 275 273 273 272 272 269 269 272 277 280 282 285 288 293 293 293
141 115 122 132 139 136 128 129 132 136 129 121 119 121 124 126 131 142 203 233 254 271 276 277 275 277 284 283 278 275 271 282 291 284 277 280 280 282 285 286 287 289 290 293
142 152 156 156 154 148 145 144 144 141 134 132 134 127 118 112 111 250 277 273 262 265 270 270 273 280 283 279 274 273 271 280 290 291 279 280 281 281 282 284 287 289 288 292
167 166 162 159 154 143 133 129 130 131 134 136 129 122 126 147 216 260 276 290 293 288 278 269 271 281 277 276 273 269 271 272 272 274 278 279 282 280 284 287 289 290 291 295
123 129 129 130 133 130 127 127 127 125 125 127 129 142 176 221 246 264 279 286 286 286 283 280 299 300 285 282 291 273 271 277 280 279 279 287 293 287 287 287 287 289 291 294
104 109 110 108 108 114 117 119 118 116 119 125 130 152 257 270 269 273 275 270 260 257 269 284 289 280 278 280 292 276 272 278 283 287 288 287 289 289 288 288 289 289 291 291
110 109 108 108 103 102 109 117 118 121 122 130 162 232 264 277 278 274 274 283 278 272 278 291 291 281 283 287 293 280 277 281 286 288 289 289 290 290 289 289 289 292 293 293
109 110 108 108 107 101 94 98 106 113 112 119 269 269 278 284 285 278 259 258 274 292 296 279 277 289 297 301 290 282 282 284 286 286 285 285 286 288 289 289 289 291 291 289
108 108 108 109 111 109 93 85 90 102 224 280 283 281 276 274 274 279 289 277 279 296 300 281 293 301 305 305 290 286 285 285 285 285 284 283 284 285 287 289 289 289 287 286
107 104 103 102 100 97 87 59 22 334 288 285 277 273 273 282 280 260 262 292 303 305 298 295 304 306 310 304 289 284 283 283 282 281 281 281 282 283 284 285 286 285 284 285
109 107 107 106 99 100 95 350 339 317 302 289 284 279 268 257 269 284 283 285 297 305 297 299 305 308 307 291 287 284 283 280 283 287 283 286 286 285 284 284 283 285 285 286
109 110 110 110 123 147 241 299 294 295 299 299 296 288 283 279 279 285 288 288 288 299 301 295 293 298 292 288 286 285 283 288 292 289 284 284 284 283 284 285 285 285 285 284
95 92 87 71 42 10 282 278 284 291 292 293 296 294 291 293 292 292 293 294 294 294 293 292 291 289 287 286 285 284 284 283 282 281 282 282 283 284 285 284 286 285 284 284